Volver al catálogo

IPEX

ActivoCienciaLEO
NORAD 39471·PAYLOAD·🇺🇸 United States

Lanzado Dec 6, 2013 desde Vandenberg Space Force Base

Loading…

Próximos Pases (próximas 24 horas)

TLE

ActualizadoSource: Space-Track

Época: Sep 13, 2026, 23:22 UTC

1 39471U 13072K   26256.97361966  .00009271  00000-0  42426-3 0  9995
2 39471 120.4661 276.0485 0170456  93.8408 268.2166 15.09473236128634

Sigue IPEX en tiempo real con AllMySat

Download on the App Store